Beverly, MA

1:44 PM EDT on August 22, 2017 (GMT -0400)
Beverly Municipal

Weather History for KBVY - February, 2014

Change the Weather History Date:

Thursday, February 20, 2014

  Actual Average Record
Temperature  
Mean Temperature 38 °F -  
Max Temperature 46 °F 34 °F 104 °F (1974)
Min Temperature 30 °F 18 °F 3 °F (2015)
Degree Days  
Heating Degree Days 27    
Moisture  
Dew Point 27 °F    
Average Humidity 70    
Maximum Humidity 92    
Minimum Humidity 35    
Precipitation  
Precipitation 0.21 in - - ()
Sea Level Pressure  
Sea Level Pressure 30.10 in    
Wind  
Wind Speed 8 mph (WSW)    
Max Wind Speed 16 mph    
Max Gust Speed 24 mph    
Visibility 9 miles    
Events Rain    
Averages and records for this station are not official NWS values.
T = Trace of Precipitation, MM = Missing Value Source: NWS Daily Summary

Daily Weather History Graph

Daily Weather History Graph

Search for Another Location

Airport or City:

Trip Planner

Search our weather history database for the weather conditions in past years. The results will help you decide how hot, cold, wet, or windy it might be!

Date:

Astronomy

Feb. 20, 2014 Rise Set
Actual Time 6:33 AM EST 5:22 PM EST
Civil Twilight 6:04 AM EST 5:50 PM EST
Nautical Twilight 5:31 AM EST 6:23 PM EST
Astronomical Twilight 4:59 AM EST 6:56 PM EST
Moon 11:21 PM EST (2/20) 9:06 AM EST (2/20)
Length of Visible Light 11h 46m
Length of Day
10h 48m
Waning Gibbous, 71% of the Moon is Illuminated
Feb 20
Waning Gibbous
Feb 22
Last Quarter
Mar 1
New
Mar 8
First Quarter
Mar 16
Full

Hourly Weather History & Observations

Time (EST) Temp. Windchill Dew Point Humidity Pressure Visibility Wind Dir Wind Speed Gust Speed Precip Events Conditions
12:09 AM 32.0 °F 24.8 °F 30.0 °F 92% 29.82 in 7.0 mi West 8.1 mph - N/A   Mostly Cloudy
12:53 AM 32.0 °F 24.8 °F 28.9 °F 88% 29.84 in 7.0 mi West 8.1 mph - N/A   Scattered Clouds
1:53 AM 30.9 °F 24.3 °F 28.9 °F 92% 29.88 in 7.0 mi WNW 6.9 mph - N/A   Clear
2:53 AM 32.0 °F 24.2 °F 28.9 °F 88% 29.91 in 10.0 mi West 9.2 mph - N/A   Clear
3:53 AM 32.0 °F 26.4 °F 28.9 °F 88% 29.95 in 10.0 mi West 5.8 mph - N/A   Clear
4:53 AM 30.0 °F 22.4 °F 27.0 °F 88% 29.99 in 9.0 mi SW 8.1 mph - N/A   Clear
5:53 AM 30.0 °F 24.1 °F 27.0 °F 88% 30.03 in 9.0 mi SW 5.8 mph - N/A   Clear
6:53 AM 33.1 °F 24.9 °F 28.0 °F 82% 30.10 in 9.0 mi WSW 10.4 mph - N/A   Clear
7:53 AM 34.0 °F 28.0 °F 28.0 °F 79% 30.12 in 10.0 mi West 6.9 mph - N/A   Clear
8:53 AM 37.0 °F 29.8 °F 28.0 °F 70% 30.14 in 10.0 mi WSW 10.4 mph - N/A   Clear
9:53 AM 39.0 °F 33.4 °F 28.0 °F 65% 30.15 in 10.0 mi West 8.1 mph - N/A   Clear
10:53 AM 41.0 °F 34.3 °F 27.0 °F 57% 30.16 in 10.0 mi West 11.5 mph - N/A   Clear
11:53 AM 42.1 °F 36.6 °F 26.1 °F 53% 30.15 in 10.0 mi West 9.2 mph - N/A   Clear
12:53 PM 43.0 °F 36.8 °F 26.1 °F 51% 30.13 in 10.0 mi SW 11.5 mph - N/A   Clear
1:53 PM 46.0 °F 41.0 °F 19.9 °F 35% 30.13 in 10.0 mi West 10.4 mph - N/A   Mostly Cloudy
2:53 PM 45.0 °F 38.9 °F 23.0 °F 42% 30.15 in 10.0 mi WSW 12.7 mph - N/A   Clear
3:53 PM 45.0 °F 41.8 °F 23.0 °F 42% 30.15 in 10.0 mi SW 5.8 mph - N/A   Mostly Cloudy
4:53 PM 44.1 °F 42.5 °F 23.0 °F 43% 30.17 in 10.0 mi WSW 3.5 mph - N/A   Mostly Cloudy
5:53 PM 42.1 °F 38.4 °F 24.1 °F 49% 30.16 in 10.0 mi South 5.8 mph - N/A   Mostly Cloudy
6:53 PM 42.1 °F 38.4 °F 24.1 °F 49% 30.15 in 10.0 mi South 5.8 mph - N/A   Mostly Cloudy
7:53 PM 41.0 °F 38.0 °F 25.0 °F 53% 30.17 in 10.0 mi South 4.6 mph - N/A   Overcast
8:53 PM 41.0 °F 32.8 °F 26.1 °F 55% 30.19 in 8.0 mi SW 16.1 mph 24.2 mph 0.01 in Rain Light Rain
9:13 PM 39.0 °F 32.3 °F 30.0 °F 70% 30.22 in 7.0 mi WSW 10.4 mph - 0.01 in Rain Light Rain
9:53 PM 36.0 °F 32.1 °F 32.0 °F 86% 30.22 in 7.0 mi NW 4.6 mph - 0.06 in Rain Light Rain
10:27 PM 34.0 °F 29.8 °F 32.0 °F 92% 30.20 in 6.0 mi NNE 4.6 mph - 0.04 in Rain Light Rain
10:53 PM 34.0 °F 29.8 °F 32.0 °F 92% 30.18 in 6.0 mi NE 4.6 mph - 0.07 in Rain Light Rain
11:38 PM 33.1 °F 30.0 °F 30.9 °F 92% 30.17 in 4.0 mi ENE 3.5 mph - 0.07 in Rain Rain
11:53 PM 33.1 °F 27.7 °F 30.9 °F 92% 30.15 in 7.0 mi East 5.8 mph - 0.07 in Rain Light Rain